Location: Copper Breaks State Park
(34.1132°N, 99.7492°W)
Time: 05:39:40
(UTC-05:00)

SL-16 R/B - Visible Passes

Search period start: 31 October 2014 00:00
Search period end: 09 November 2014 23:00
Orbit: 986 x 1006 km, 99.2° (Epoch: 29 October)

Date Brightness Start Highest point End Pass type
(mag) Time Alt. Az. Time Alt. Az. Time Alt. Az.
31 Oct 4.8 04:09:36 10° E 04:13:26 17° ENE 04:14:46 16° NE visible
31 Oct 2.4 05:50:16 10° S 05:56:24 66° WSW 05:59:47 28° NNW visible
01 Nov 4.1 04:38:38 10° SE 04:43:56 31° ENE 04:45:05 29° NE visible
01 Nov 3.0 06:21:48 10° SSW 06:27:24 36° W 06:30:08 25° NW visible
01 Nov 4.1 19:09:31 10° N 19:15:13 38° WNW 19:20:53 10° SW visible
02 Nov 3.0 04:08:35 10° SSE 04:14:36 56° ENE 04:15:46 49° NNE visible
02 Nov 3.7 05:54:19 10° SW 05:58:31 19° W 06:00:50 16° WNW visible
02 Nov 4.9 18:41:15 10° NNW 18:45:47 21° WNW 18:50:17 10° WSW visible
03 Nov 5.1 02:59:37 10° E 03:01:32 13° ENE 03:01:32 13° ENE visible
03 Nov 2.4 04:39:12 10° SSE 04:45:24 81° WSW 04:46:36 60° NNW visible
03 Nov 5.4 19:14:22 10° NW 19:16:11 11° WNW 19:17:59 10° WNW visible
04 Nov 4.4 03:28:08 10° ESE 03:32:27 25° ENE 03:32:27 25° ENE visible
04 Nov 2.8 05:10:29 10° S 05:16:21 44° W 05:17:31 40° WNW visible
04 Nov 3.7 17:58:22 10° N 18:04:18 47° WNW 18:10:11 10° SW visible
05 Nov 3.4 03:57:49 10° SE 04:03:25 45° ENE 04:03:25 45° ENE visible
05 Nov 3.5 05:42:36 10° SSW 05:47:26 24° W 05:48:30 23° W visible
05 Nov 4.7 18:29:54 10° NNW 18:34:55 26° WNW 18:39:54 10° WSW visible
06 Nov 2.5 04:28:13 10° SSE 04:34:25 83° ENE 04:34:25 83° ENE visible
06 Nov 4.1 06:16:34 10° WSW 06:18:39 12° W 06:19:30 11° W visible
06 Nov 5.2 19:02:16 10° NNW 19:05:22 14° WNW 19:08:29 10° W visible
07 Nov 4.8 03:17:45 10° ESE 03:20:23 19° E 03:20:23 19° E visible
07 Nov 2.5 04:59:16 10° S 05:05:19 55° W 05:05:28 55° W visible
08 Nov 3.9 03:47:08 10° SE 03:51:27 34° E 03:51:27 34° E visible
08 Nov 3.2 05:31:04 10° SSW 05:36:21 29° W 05:36:32 29° W visible
08 Nov 4.4 18:18:38 10° N 18:24:02 32° WNW 18:29:24 10° SW visible
09 Nov 2.9 04:17:19 10° SSE 04:22:32 60° ESE 04:22:32 60° ESE visible
09 Nov 3.9 06:04:04 10° SW 06:07:31 15° W 06:07:36 15° W visible
09 Nov 5.0 18:50:37 10° NNW 18:54:33 18° WNW 18:58:28 10° WSW visible
